Location: Brusselsch Zeekanaal
(50.8667°N, 4.3667°E)
Time: 05:38:28
(UTC+00:00)

NOSS 2-1 (C) - Pass Details

Date: 08 November 2025
Orbit: 375 x 1687 km, 63.3° (Epoch: 11 December)

Event Time Altitude Azimuth Distance (km) Brightness Sun altitude
Exits shadow 05:59:17 - 269° (W) 1,560 5.0 -7.8°
Reaches altitude 10° 05:59:26 10° 270° (W) 1,506 4.9 -7.8°
Maximum altitude 06:02:05 23° 327° (NNW) 879 3.9 -7.4°
Drops below altitude 10° 06:04:34 10° 24° (NNE) 1,397 5.5 -7.0°
Sets 06:06:48 0° 40° (NE) 2,264 6.8 -6.7°
